| time (UTC) | temp C | wind direction | speed KPH | gust KPH | rain 1hr cm | rain 24hr cm | rain mn cm | humidity % | barometer mb |
| 20260504151006 | 20 | 221 | 1.6 | 16.1 | 0.00 | 0.00 | 0.00 | 43 | 1014.0 |
| 20260504150504 | 19 | 244 | 3.2 | 16.1 | 0.00 | 0.00 | 0.00 | 41 | 1014.1 |
| 20260504141003 | 17 | 193 | 1.6 | 9.7 | 0.00 | 0.00 | 0.00 | 50 | 1014.1 |
| 20260504140503 | 16 | 187 | 0.0 | 9.7 | 0.00 | 0.00 | 0.00 | 51 | 1014.0 |
| 20260504130504 | 12 | 146 | 0.0 | 6.4 | 0.00 | 0.00 | 0.00 | 63 | 1014.4 |
| 20260504110504 | 6 | 235 | 0.0 | 0.0 | 0.00 | 0.00 | 0.00 | 86 | 1015.3 |
| 20260504100503 | 6 | 235 | 0.0 | 0.0 | 0.00 | 0.00 | 0.00 | 82 | 1015.1 |
| 20260504082007 | 6 | 235 | 0.0 | 0.0 | 0.00 | 0.00 | 0.00 | 84 | 1015.5 |
| 20260504081524 | 6 | 235 | 0.0 | 0.0 | 0.00 | 0.00 | 0.00 | 84 | 1015.4 |
| 20260504081004 | 6 | 235 | 0.0 | 0.0 | 0.00 | 0.00 | 0.00 | 84 | 1015.4 |
| 20260504080507 | 6 | 235 | 0.0 | 0.0 | 0.00 | 0.00 | 0.00 | 84 | 1015.5 |
| 20260504050501 | 5 | 235 | 0.0 | 0.0 | 0.00 | 0.00 | 0.00 | 80 | 1015.8 |
| 20260504050008 | 5 | 235 | 0.0 | 0.0 | 0.00 | 0.00 | 0.00 | 80 | 1015.8 |
| 20260504045505 | 5 | 235 | 0.0 | 0.0 | 0.00 | 0.00 | 0.00 | 81 | 1015.8 |
| 20260504045000 | 5 | 235 | 0.0 | 0.0 | 0.00 | 0.00 | 0.00 | 80 | 1015.8 |
| 20260504044506 | 5 | 235 | 0.0 | 0.0 | 0.00 | 0.00 | 0.00 | 79 | 1015.8 |
| 20260504044004 | 5 | 235 | 0.0 | 0.0 | 0.00 | 0.00 | 0.00 | 79 | 1015.9 |
| 20260504043501 | 5 | 235 | 0.0 | 0.0 | 0.00 | 0.00 | 0.00 | 78 | 1015.8 |
| 20260504043006 | 5 | 235 | 0.0 | 0.0 | 0.00 | 0.00 | 0.00 | 78 | 1015.8 |
| 20260504042503 | 5 | 235 | 0.0 | 0.0 | 0.00 | 0.00 | 0.00 | 78 | 1015.8 |
| 20260504042003 | 5 | 235 | 0.0 | 0.0 | 0.00 | 0.00 | 0.00 | 77 | 1015.6 |
| 20260504041513 | 5 | 235 | 0.0 | 0.0 | 0.00 | 0.00 | 0.00 | 77 | 1015.6 |
| 20260504041001 | 5 | 235 | 0.0 | 0.0 | 0.00 | 0.00 | 0.00 | 77 | 1015.7 |
| 20260504040504 | 5 | 235 | 0.0 | 0.0 | 0.00 | 0.00 | 0.00 | 76 | 1015.7 |
| 20260504040021 | 5 | 235 | 0.0 | 0.0 | 0.00 | 0.00 | 0.00 | 76 | 1015.7 |
| 20260504035503 | 5 | 235 | 0.0 | 0.0 | 0.00 | 0.00 | 0.00 | 75 | 1015.7 |
| 20260504035003 | 5 | 235 | 0.0 | 0.0 | 0.00 | 0.00 | 0.00 | 75 | 1015.7 |
| 20260504034517 | 5 | 235 | 0.0 | 0.0 | 0.00 | 0.00 | 0.00 | 75 | 1015.8 |
| 20260504034007 | 6 | 235 | 0.0 | 0.0 | 0.00 | 0.00 | 0.00 | 74 | 1015.8 |
| 20260504033501 | 6 | 235 | 0.0 | 0.0 | 0.00 | 0.00 | 0.00 | 73 | 1015.8 |
| 20260504033006 | 6 | 235 | 0.0 | 0.0 | 0.00 | 0.00 | 0.00 | 73 | 1015.8 |
| 20260504032504 | 6 | 235 | 0.0 | 0.0 | 0.00 | 0.00 | 0.00 | 72 | 1015.8 |
| 20260504032004 | 6 | 235 | 0.0 | 0.0 | 0.00 | 0.00 | 0.00 | 72 | 1015.7 |
| 20260504031510 | 6 | 235 | 0.0 | 0.0 | 0.00 | 0.00 | 0.00 | 72 | 1015.7 |
| 20260504031005 | 6 | 235 | 0.0 | 0.0 | 0.00 | 0.00 | 0.00 | 71 | 1015.7 |
| 20260504030507 | 6 | 235 | 0.0 | 0.0 | 0.00 | 0.00 | 0.00 | 71 | 1015.7 |
| 20260504030005 | 6 | 235 | 0.0 | 0.0 | 0.00 | 0.00 | 0.00 | 70 | 1015.6 |
| 20260504025503 | 6 | 235 | 0.0 | 0.0 | 0.00 | 0.00 | 0.00 | 69 | 1015.6 |
| 20260504025006 | 7 | 235 | 0.0 | 0.0 | 0.00 | 0.00 | 0.00 | 69 | 1015.6 |
| 20260504024503 | 7 | 235 | 0.0 | 0.0 | 0.00 | 0.00 | 0.00 | 69 | 1015.7 |
| 20260504024004 | 7 | 235 | 0.0 | 0.0 | 0.00 | 0.00 | 0.00 | 67 | 1015.6 |
| 20260504023504 | 7 | 235 | 0.0 | 0.0 | 0.00 | 0.00 | 0.00 | 67 | 1015.6 |
| 20260504023024 | 7 | 235 | 0.0 | 0.0 | 0.00 | 0.00 | 0.00 | 67 | 1015.6 |
| 20260504022503 | 7 | 235 | 0.0 | 0.0 | 0.00 | 0.00 | 0.00 | 66 | 1015.5 |
| 20260504022004 | 7 | 235 | 0.0 | 0.0 | 0.00 | 0.00 | 0.00 | 64 | 1015.5 |
| 20260504021508 | 7 | 235 | 0.0 | 0.0 | 0.00 | 0.00 | 0.00 | 64 | 1015.5 |
| 20260504021002 | 8 | 235 | 0.0 | 0.0 | 0.00 | 0.00 | 0.00 | 65 | 1015.4 |
| 20260504020504 | 8 | 235 | 0.0 | 0.0 | 0.00 | 0.00 | 0.00 | 64 | 1015.4 |
| 20260504020013 | 8 | 235 | 0.0 | 0.0 | 0.00 | 0.00 | 0.00 | 63 | 1015.3 |
| 20260504015504 | 8 | 235 | 0.0 | 0.0 | 0.00 | 0.00 | 0.00 | 62 | 1015.3 |
| 20260504015004 | 8 | 235 | 0.0 | 0.0 | 0.00 | 0.00 | 0.00 | 62 | 1015.3 |
| 20260504014514 | 9 | 235 | 0.0 | 0.0 | 0.00 | 0.00 | 0.00 | 62 | 1015.2 |
| 20260504014006 | 9 | 235 | 0.0 | 0.0 | 0.00 | 0.00 | 0.00 | 61 | 1015.2 |
| 20260504013506 | 10 | 235 | 0.0 | 0.0 | 0.00 | 0.00 | 0.00 | 59 | 1015.1 |
| 20260504013017 | 10 | 235 | 0.0 | 0.0 | 0.00 | 0.00 | 0.00 | 57 | 1014.9 |
| 20260504012504 | 10 | 235 | 0.0 | 0.0 | 0.00 | 0.00 | 0.00 | 57 | 1014.9 |
| 20260504012008 | 10 | 235 | 0.0 | 0.0 | 0.00 | 0.00 | 0.00 | 56 | 1014.8 |
| 20260504011506 | 10 | 235 | 0.0 | 0.0 | 0.00 | 0.00 | 0.00 | 55 | 1014.7 |
| 20260504011003 | 10 | 235 | 0.0 | 0.0 | 0.00 | 0.00 | 0.00 | 54 | 1014.7 |
| 20260504010505 | 10 | 235 | 0.0 | 0.0 | 0.00 | 0.00 | 0.00 | 52 | 1014.7 |
| 20260504010010 | 11 | 235 | 0.0 | 0.0 | 0.00 | 0.00 | 0.00 | 52 | 1014.8 |
| 20260504005504 | 11 | 235 | 0.0 | 0.0 | 0.00 | 0.00 | 0.00 | 52 | 1014.8 |
| 20260504005003 | 11 | 235 | 0.0 | 0.0 | 0.00 | 0.00 | 0.00 | 52 | 1014.8 |
| 20260504004518 | 11 | 235 | 0.0 | 0.0 | 0.00 | 0.00 | 0.00 | 52 | 1014.7 |
| 20260504004003 | 12 | 235 | 0.0 | 0.0 | 0.00 | 0.00 | 0.00 | 48 | 1014.6 |
| 20260504003503 | 12 | 235 | 0.0 | 0.0 | 0.00 | 0.00 | 0.00 | 46 | 1014.6 |
| 20260504003017 | 12 | 235 | 0.0 | 0.0 | 0.00 | 0.00 | 0.00 | 47 | 1014.5 |
| 20260504002508 | 12 | 235 | 0.0 | 0.0 | 0.00 | 0.00 | 0.00 | 45 | 1014.5 |
| 20260504002005 | 13 | 235 | 0.0 | 0.0 | 0.00 | 0.00 | 0.00 | 44 | 1014.5 |
| 20260504001520 | 13 | 235 | 0.0 | 0.0 | 0.00 | 0.00 | 0.00 | 43 | 1014.5 |
| 20260504001007 | 13 | 235 | 0.0 | 0.0 | 0.00 | 0.00 | 0.00 | 42 | 1014.5 |
| 20260504000503 | 13 | 235 | 0.0 | 0.0 | 0.00 | 0.00 | 0.00 | 42 | 1014.5 |
| 20260504000015 | 13 | 235 | 0.0 | 0.0 | 0.00 | 0.00 | 0.00 | 41 | 1014.5 |
| 20260503235503 | 13 | 235 | 0.0 | 0.0 | 0.00 | 0.00 | 0.00 | 40 | 1014.5 |
| 20260503235004 | 14 | 235 | 0.0 | 0.0 | 0.00 | 0.00 | 0.00 | 39 | 1014.4 |
| 20260503234517 | 14 | 235 | 0.0 | 0.0 | 0.00 | 0.00 | 0.00 | 38 | 1014.4 |
| 20260503234004 | 15 | 235 | 0.0 | 0.0 | 0.00 | 0.00 | 0.00 | 38 | 1014.4 |
| 20260503233503 | 15 | 235 | 0.0 | 0.0 | 0.00 | 0.00 | 0.00 | 39 | 1014.4 |
| 20260503233016 | 15 | 235 | 0.0 | 0.0 | 0.00 | 0.00 | 0.00 | 38 | 1014.4 |
| 20260503232503 | 15 | 235 | 0.0 | 4.8 | 0.00 | 0.00 | 0.00 | 37 | 1014.4 |
| 20260503232007 | 15 | 235 | 0.0 | 4.8 | 0.00 | 0.00 | 0.00 | 34 | 1014.3 |
| 20260503231524 | 15 | 232 | 0.0 | 4.8 | 0.00 | 0.00 | 0.00 | 35 | 1014.2 |
| 20260503231005 | 15 | 219 | 0.0 | 11.3 | 0.00 | 0.00 | 0.00 | 34 | 1014.2 |
| 20260503230508 | 15 | 218 | 1.6 | 11.3 | 0.00 | 0.00 | 0.00 | 35 | 1014.1 |
| 20260503230025 | 15 | 113 | 0.0 | 9.7 | 0.00 | 0.00 | 0.00 | 35 | 1014.1 |
| 20260503225506 | 15 | 202 | 1.6 | 9.7 | 0.00 | 0.00 | 0.00 | 32 | 1014.1 |
| 20260503225004 | 15 | 189 | 0.0 | 8.0 | 0.00 | 0.00 | 0.00 | 33 | 1014.1 |
| 20260503224507 | 16 | 236 | 0.0 | 9.7 | 0.00 | 0.00 | 0.00 | 39 | 1014.2 |
| 20260503224006 | 16 | 219 | 1.6 | 9.7 | 0.00 | 0.00 | 0.00 | 37 | 1014.2 |
| 20260503223501 | 16 | 244 | 0.0 | 6.4 | 0.00 | 0.00 | 0.00 | 34 | 1014.2 |
| 20260503223013 | 16 | 244 | 0.0 | 11.3 | 0.00 | 0.00 | 0.00 | 33 | 1014.2 |
| 20260503222506 | 16 | 249 | 1.6 | 11.3 | 0.00 | 0.00 | 0.00 | 37 | 1014.3 |
| 20260503222006 | 16 | 45 | 0.0 | 8.0 | 0.00 | 0.00 | 0.00 | 35 | 1014.2 |
| 20260503221515 | 16 | 220 | 0.0 | 9.7 | 0.00 | 0.00 | 0.00 | 36 | 1014.2 |
| 20260503221006 | 16 | 221 | 1.6 | 9.7 | 0.00 | 0.00 | 0.00 | 34 | 1014.3 |
| 20260503220509 | 16 | 188 | 0.0 | 11.3 | 0.00 | 0.00 | 0.00 | 34 | 1014.4 |
| 20260503220012 | 16 | 191 | 0.0 | 11.3 | 0.00 | 0.00 | 0.00 | 32 | 1014.4 |
| 20260503215506 | 16 | 26 | 1.6 | 11.3 | 0.00 | 0.00 | 0.00 | 34 | 1014.3 |
| 20260503215009 | 16 | 165 | 0.0 | 8.0 | 0.00 | 0.00 | 0.00 | 36 | 1014.3 |
| 20260503214539 | 16 | 228 | 0.0 | 16.1 | 0.00 | 0.00 | 0.00 | 33 | 1014.3 |
| 20260503214009 | 16 | 187 | 1.6 | 16.1 | 0.00 | 0.00 | 0.00 | 32 | 1014.3 |
| 20260503213511 | 16 | 166 | 0.0 | 9.7 | 0.00 | 0.00 | 0.00 | 33 | 1014.3 |
| 20260503213012 | 16 | 60 | 1.6 | 17.7 | 0.00 | 0.00 | 0.00 | 33 | 1014.5 |
| 20260503212503 | 16 | 208 | 4.8 | 17.7 | 0.00 | 0.00 | 0.00 | 32 | 1014.5 |
| 20260503212004 | 16 | 252 | 3.2 | 17.7 | 0.00 | 0.00 | 0.00 | 32 | 1014.5 |
| 20260503211516 | 16 | 216 | 4.8 | 12.9 | 0.00 | 0.00 | 0.00 | 31 | 1014.5 |
| 20260503211006 | 16 | 225 | 3.2 | 12.9 | 0.00 | 0.00 | 0.00 | 34 | 1014.4 |
| 20260503210503 | 16 | 208 | 1.6 | 12.9 | 0.00 | 0.00 | 0.00 | 33 | 1014.4 |
| 20260503210022 | 16 | 194 | 0.0 | 11.3 | 0.00 | 0.00 | 0.00 | 34 | 1014.4 |
| 20260503205506 | 16 | 195 | 1.6 | 12.9 | 0.00 | 0.00 | 0.00 | 33 | 1014.4 |
| 20260503205004 | 16 | 218 | 3.2 | 12.9 | 0.00 | 0.00 | 0.00 | 32 | 1014.5 |
| 20260503204519 | 16 | 204 | 1.6 | 11.3 | 0.00 | 0.00 | 0.00 | 34 | 1014.5 |
| 20260503204007 | 16 | 223 | 4.8 | 14.5 | 0.00 | 0.00 | 0.00 | 33 | 1014.7 |
| 20260503203510 | 16 | 190 | 3.2 | 17.7 | 0.00 | 0.00 | 0.00 | 32 | 1014.7 |
| 20260503203008 | 16 | 238 | 8.0 | 17.7 | 0.00 | 0.00 | 0.00 | 34 | 1014.6 |
| 20260503202503 | 15 | 269 | 0.0 | 16.1 | 0.00 | 0.00 | 0.00 | 35 | 1014.5 |
| 20260503202003 | 15 | 181 | 1.6 | 16.1 | 0.00 | 0.00 | 0.00 | 33 | 1014.6 |
| 20260503201516 | 15 | 22 | 1.6 | 12.9 | 0.00 | 0.00 | 0.00 | 32 | 1014.7 |
| 20260503201007 | 15 | 50 | 1.6 | 17.7 | 0.00 | 0.00 | 0.00 | 34 | 1014.7 |
| 20260503200509 | 15 | 80 | 4.8 | 17.7 | 0.00 | 0.00 | 0.00 | 33 | 1014.9 |
| 20260503200008 | 15 | 223 | 1.6 | 20.9 | 0.00 | 0.00 | 0.00 | 35 | 1014.9 |
| 20260503195507 | 15 | 197 | 8.0 | 20.9 | 0.00 | 0.00 | 0.00 | 33 | 1015.1 |
| 20260503195009 | 15 | 225 | 3.2 | 14.5 | 0.00 | 0.00 | 0.00 | 34 | 1015.1 |
| 20260503194506 | 15 | 200 | 4.8 | 17.7 | 0.00 | 0.00 | 0.00 | 36 | 1015.2 |
| 20260503194004 | 15 | 207 | 4.8 | 17.7 | 0.00 | 0.00 | 0.00 | 35 | 1015.4 |
| 20260503193503 | 15 | 219 | 3.2 | 9.7 | 0.00 | 0.00 | 0.00 | 37 | 1015.4 |
| 20260503193006 | 15 | 135 | 1.6 | 9.7 | 0.00 | 0.00 | 0.00 | 37 | 1015.4 |
| 20260503192502 | 15 | 219 | 0.0 | 9.7 | 0.00 | 0.00 | 0.00 | 38 | 1015.5 |
| 20260503192005 | 14 | 226 | 0.0 | 9.7 | 0.00 | 0.00 | 0.00 | 37 | 1015.6 |
| 20260503191516 | 14 | 219 | 0.0 | 19.3 | 0.00 | 0.00 | 0.00 | 36 | 1015.7 |
| 20260503191003 | 14 | 217 | 6.4 | 19.3 | 0.00 | 0.00 | 0.00 | 37 | 1015.8 |
| 20260503190504 | 14 | 73 | 1.6 | 14.5 | 0.00 | 0.00 | 0.00 | 38 | 1015.7 |
| 20260503190020 | 14 | 216 | 6.4 | 16.1 | 0.00 | 0.00 | 0.00 | 37 | 1015.8 |
| 20260503185506 | 14 | 212 | 3.2 | 16.1 | 0.00 | 0.00 | 0.00 | 38 | 1015.9 |
| 20260503185001 | 14 | 212 | 3.2 | 16.1 | 0.00 | 0.00 | 0.00 | 37 | 1016.0 |
| 20260503184516 | 14 | 224 | 4.8 | 16.1 | 0.00 | 0.00 | 0.00 | 37 | 1015.9 |
| 20260503184009 | 14 | 229 | 4.8 | 16.1 | 0.00 | 0.00 | 0.00 | 39 | 1016.0 |
| 20260503183501 | 14 | 215 | 1.6 | 14.5 | 0.00 | 0.00 | 0.00 | 38 | 1015.9 |
| 20260503183014 | 13 | 203 | 3.2 | 14.5 | 0.00 | 0.00 | 0.00 | 39 | 1016.2 |
| 20260503182505 | 13 | 88 | 4.8 | 12.9 | 0.00 | 0.00 | 0.00 | 38 | 1016.1 |
| 20260503182001 | 13 | 240 | 3.2 | 19.3 | 0.00 | 0.00 | 0.00 | 39 | 1016.2 |
| 20260503181509 | 13 | 254 | 8.0 | 19.3 | 0.00 | 0.00 | 0.00 | 39 | 1016.2 |
| 20260503181004 | 13 | 350 | 3.2 | 19.3 | 0.00 | 0.00 | 0.00 | 39 | 1016.2 |
| 20260503180504 | 13 | 219 | 1.6 | 19.3 | 0.00 | 0.00 | 0.00 | 40 | 1016.2 |
| 20260503180018 | 13 | 200 | 4.8 | 17.7 | 0.00 | 0.00 | 0.00 | 40 | 1016.2 |
| 20260503175507 | 13 | 147 | 1.6 | 17.7 | 0.00 | 0.00 | 0.00 | 39 | 1016.3 |
| 20260503175005 | 13 | 217 | 4.8 | 17.7 | 0.00 | 0.00 | 0.00 | 40 | 1016.2 |
| 20260503174525 | 13 | 234 | 0.0 | 12.9 | 0.00 | 0.00 | 0.00 | 42 | 1016.3 |
| 20260503174002 | 13 | 201 | 3.2 | 9.7 | 0.00 | 0.00 | 0.00 | 41 | 1016.5 |
| 20260503173507 | 13 | 217 | 1.6 | 11.3 | 0.00 | 0.00 | 0.00 | 42 | 1016.6 |
| 20260503173034 | 13 | 212 | 3.2 | 11.3 | 0.00 | 0.00 | 0.00 | 42 | 1016.6 |
| 20260503172509 | 12 | 194 | 3.2 | 14.5 | 0.00 | 0.00 | 0.00 | 41 | 1016.6 |
| 20260503172006 | 12 | 134 | 1.6 | 14.5 | 0.00 | 0.00 | 0.00 | 41 | 1016.7 |
| 20260503171522 | 12 | 79 | 3.2 | 19.3 | 0.00 | 0.00 | 0.00 | 41 | 1016.7 |
| 20260503171001 | 12 | 77 | 1.6 | 19.3 | 0.00 | 0.00 | 0.00 | 42 | 1016.6 |
| 20260503170504 | 12 | 99 | 1.6 | 17.7 | 0.00 | 0.00 | 0.00 | 40 | 1016.6 |